{"data":{"norad_id":81614,"epoch":"2026-05-23T22:33:18.878112Z","epoch_age_seconds":177397,"freshness":"STALE","line1":"1 81614U          26143.93980183  .00003466  00000+0  21835-1 0  9995","line2":"2 81614 101.8524 140.1541 0339450 194.0549 165.0879 12.38906070558050","mean_motion":12.3890607,"eccentricity":0.033945,"inclination_deg":101.8524,"raan_deg":140.1541,"arg_perigee_deg":194.0549,"mean_anomaly_deg":165.0879,"bstar":0.021835,"rev_number":55805,"period_min":116.2315719383,"perigee_km":1243.4388033668,"apogee_km":1779.048868312,"semimajor_km":7889.3808358394,"source":"CELESTRAK","updated_at":"2026-05-25T13:38:11.079055Z"}}